CW0608 Weather Reports


Display with metric or nautical units.
time (UTC)temp
F
wind
direction
speed
MPH
gust
MPH
rain 1hr
in
rain 24hr
in
rain mn
in
humidity
%
barometer
mb
20260506133805 63 163 5.0 12.0 0.01 0.01 0.01 86 1010.8
20260506132805 63 155 4.0 12.0 0.01 0.01 0.01 85 1010.8
20260506131305 64 153 5.0 8.0 0.00 0.00 0.00 83 1010.6
20260506130806 64 153 3.0 12.0 0.00 0.00 0.00 83 1010.4
20260506124804 64 174 3.0 14.0 0.00 0.00 0.00 82 1010.5
20260506124305 64 166 3.0 14.0 0.00 0.00 0.00 81 1010.5
20260506123304 64 163 3.0 8.0 0.00 0.00 0.00 81 1010.8
20260506122804 64 164 4.0 10.0 0.00 0.00 0.00 80 1010.9
20260506122306 65 180 4.0 10.0 0.00 0.00 0.00 79 1011.0
20260506121804 65 167 4.0 10.0 0.00 0.00 0.00 79 1011.0
20260506121306 65 154 5.0 12.0 0.00 0.00 0.00 78 1011.0
20260506120804 65 167 6.0 12.0 0.00 0.00 0.00 77 1010.9
20260506120306 65 139 5.0 12.0 0.00 0.00 0.00 77 1010.9
20260506115805 66 183 3.0 9.0 0.00 0.00 0.00 77 1010.9
20260506114805 66 171 6.0 12.0 0.00 0.00 0.00 77 1010.7
20260506113804 66 148 6.0 9.0 0.00 0.00 0.00 77 1010.5
20260506112804 66 152 5.0 12.0 0.00 0.00 0.00 77 1010.4
20260506111804 65 167 5.0 14.0 0.00 0.00 0.00 77 1010.4
20260506111304 65 162 5.0 14.0 0.00 0.00 0.00 77 1010.4
20260506110805 65 193 4.0 14.0 0.00 0.00 0.00 77 1010.4
20260506104805 65 156 7.0 15.0 0.00 0.00 0.00 77 1010.1
20260506104305 65 169 7.0 15.0 0.00 0.00 0.00 77 1010.1
20260506102305 64 155 7.0 12.0 0.00 0.00 0.00 78 1010.0
20260506101305 64 153 5.0 12.0 0.00 0.00 0.00 78 1010.0
20260506100804 64 166 6.0 12.0 0.00 0.00 0.00 77 1010.1
20260506100305 65 148 4.0 12.0 0.00 0.00 0.00 77 1010.2
20260506095804 65 154 5.0 12.0 0.00 0.00 0.00 77 1010.1
20260506093304 65 147 4.0 12.0 0.00 0.00 0.00 76 1010.2
20260506091305 66 158 3.0 12.0 0.00 0.00 0.00 75 1010.1
20260506090805 66 161 5.0 12.0 0.00 0.00 0.00 74 1010.2
20260506084805 66 142 5.0 15.0 0.00 0.00 0.00 74 1010.4
20260506083304 66 162 4.0 9.0 0.00 0.00 0.00 72 1010.3
20260506082805 67 141 5.0 10.0 0.00 0.00 0.00 72 1010.3
20260506080805 67 172 5.0 12.0 0.00 0.00 0.00 70 1010.1
20260506080304 68 159 7.0 12.0 0.00 0.00 0.00 69 1010.2
20260506072306 69 178 5.0 10.0 0.00 0.00 0.00 66 1010.5
20260506070805 69 155 4.0 10.0 0.00 0.00 0.00 65 1010.5
20260506062306 70 163 4.0 12.0 0.00 0.00 0.00 62 1010.8
20260506061804 70 164 4.0 12.0 0.00 0.00 0.00 61 1010.8
20260506061306 70 162 6.0 12.0 0.00 0.00 0.00 61 1010.8
20260506060804 70 181 5.0 12.0 0.00 0.00 0.00 61 1010.8
20260506050804 71 174 6.0 18.0 0.00 0.00 0.00 58 1011.2
20260506044304 69 151 4.0 8.0 0.00 0.00 0.00 61 1011.3
20260506043805 69 185 3.0 10.0 0.00 0.00 0.00 61 1011.3
20260506041306 67 174 2.0 7.0 0.00 0.00 0.00 62 1011.2
20260506040815 67 157 3.0 7.0 0.00 0.00 0.00 62 1011.3
20260506040305 66 142 3.0 5.0 0.00 0.00 0.00 63 1011.4
20260506035804 66 152 2.0 3.0 0.00 0.00 0.00 63 1011.3
20260506035306 66 144 2.0 3.0 0.00 0.00 0.00 63 1011.3
20260506034305 66 159 2.0 5.0 0.00 0.00 0.00 63 1011.4
20260506031804 66 175 2.0 6.0 0.00 0.00 0.00 63 1011.3
20260506031304 65 155 2.0 3.0 0.00 0.00 0.00 64 1011.3
20260506030804 66 157 2.0 5.0 0.00 0.00 0.00 64 1011.3
20260506030304 65 156 1.0 5.0 0.00 0.00 0.00 64 1011.3
20260506024306 66 157 1.0 5.0 0.00 0.00 0.00 64 1011.4
20260506023804 66 158 2.0 3.0 0.00 0.00 0.00 65 1011.4
20260506022306 66 155 2.0 8.0 0.00 0.00 0.00 65 1011.5
20260506021805 66 148 1.0 3.0 0.00 0.00 0.00 67 1011.4
20260506021304 65 148 1.0 3.0 0.00 0.00 0.00 69 1011.4
20260506020804 65 144 0.0 0.0 0.00 0.00 0.00 70 1011.5
20260506020304 65 115 0.0 0.0 0.00 0.00 0.00 71 1011.4
20260506014806 66 114 0.0 0.0 0.00 0.00 0.00 71 1011.3
20260506012307 68 94 0.0 0.0 0.00 0.00 0.00 65 1011.1
20260506011804 68 96 0.0 2.0 0.00 0.00 0.00 64 1011.1
20260506005804 70 113 1.0 3.0 0.00 0.00 0.00 57 1010.8
20260506004805 73 137 2.0 5.0 0.00 0.00 0.00 51 1010.6
20260506003304 77 168 6.0 12.0 0.00 0.00 0.00 35 1010.4
20260506001305 78 176 5.0 14.0 0.00 0.00 0.00 33 1010.3
20260505235305 79 193 7.0 17.0 0.00 0.00 0.00 33 1010.0
20260505234805 78 168 6.0 16.0 0.00 0.00 0.00 33 1009.9
20260505230804 80 169 7.0 13.0 0.00 0.00 0.00 33 1009.7
20260505225804 80 187 5.0 17.0 0.00 0.00 0.00 33 1009.8
20260505224304 80 206 7.0 18.0 0.00 0.00 0.00 33 1009.7
20260505223804 80 166 8.0 23.0 0.00 0.00 0.00 32 1009.8
20260505220804 81 173 8.0 20.0 0.00 0.00 0.00 30 1010.0
20260505215806 82 192 8.0 22.0 0.00 0.00 0.00 30 1010.0
20260505215305 82 172 8.0 22.0 0.00 0.00 0.00 30 1009.9
20260505214305 82 192 5.0 22.0 0.00 0.00 0.00 30 1009.9
20260505211804 84 173 6.0 18.0 0.00 0.00 0.00 31 1009.6
20260505210304 83 175 6.0 20.0 0.00 0.00 0.00 31 1009.7
20260505205805 83 174 9.0 20.0 0.00 0.00 0.00 31 1009.8
20260505204305 84 148 7.0 20.0 0.00 0.00 0.00 29 1009.9
20260505203304 85 176 7.0 20.0 0.00 0.00 0.00 30 1009.7
20260505201804 83 149 7.0 30.0 0.00 0.00 0.00 31 1009.7
20260505201304 84 158 7.0 15.0 0.00 0.00 0.00 32 1009.9
20260505200805 84 169 5.0 17.0 0.00 0.00 0.00 31 1009.8
20260505200304 84 157 10.0 20.0 0.00 0.00 0.00 31 1009.9
20260505193304 84 203 5.0 20.0 0.00 0.00 0.00 33 1010.1
20260505191304 84 174 9.0 22.0 0.00 0.00 0.00 34 1010.3
20260505185305 84 184 6.0 20.0 0.00 0.00 0.00 34 1010.5
20260505184806 84 192 9.0 22.0 0.00 0.00 0.00 33 1010.5
20260505184304 84 229 7.0 22.0 0.00 0.00 0.00 33 1010.6
20260505181304 84 182 9.0 20.0 0.00 0.00 0.00 32 1011.1
20260505180304 84 154 7.0 20.0 0.00 0.00 0.00 32 1011.1
20260505175806 83 175 6.0 15.0 0.00 0.00 0.00 38 1011.2
20260505173804 83 147 6.0 20.0 0.00 0.00 0.00 35 1011.4
20260505173304 83 173 9.0 20.0 0.00 0.00 0.00 33 1011.5
20260505172804 83 193 5.0 16.0 0.00 0.00 0.00 32 1011.5
20260505172306 83 172 7.0 16.0 0.00 0.00 0.00 33 1011.5
20260505170804 82 143 8.0 18.0 0.00 0.00 0.00 36 1011.8
20260505170304 82 155 5.0 18.0 0.00 0.00 0.00 40 1011.8
20260505165804 82 157 8.0 18.0 0.00 0.00 0.00 39 1011.9
20260505164304 82 157 3.0 9.0 0.00 0.00 0.00 43 1012.0
20260505162306 80 156 5.0 15.0 0.00 0.00 0.00 47 1012.2
20260505161304 80 155 5.0 15.0 0.00 0.00 0.00 50 1012.4
20260505160304 79 173 6.0 14.0 0.00 0.00 0.00 48 1012.5
20260505152305 77 152 3.0 12.0 0.00 0.00 0.00 49 1012.6
20260505151805 77 167 5.0 13.0 0.00 0.00 0.00 47 1012.6
20260505150804 76 159 6.0 15.0 0.00 0.00 0.00 49 1012.5
20260505150304 75 151 9.0 15.0 0.00 0.00 0.00 50 1012.6
20260505140304 72 153 4.0 9.0 0.00 0.00 0.00 55 1012.5